Weather History for Thermopolis, WY

Change the Weather History Date:

Thursday, November 8, 2012

  Actual Average (KWRL) Record (KWRL)
Temperature  
Mean Temperature 39 °F 35 °F  
Max Temperature 50 °F 49 °F 75 °F (1999)
Min Temperature 28 °F 21 °F 5 °F (2003)
Degree Days  
Heating Degree Days 26 30  
Month to date heating degree days 224  
Since 1 July heating degree days 1086  
Cooling Degree Days 0 0  
Month to date cooling degree days 0  
Year to date cooling degree days 535  
Moisture  
Dew Point 25 °F    
Average Humidity 59    
Maximum Humidity 93    
Minimum Humidity 30    
Precipitation  
Precipitation 0.00 in 0.01 in 0.25 in (1983)
Month to date precipitation 0.10  
Year to date precipitation 7.09  
Sea Level Pressure  
Sea Level Pressure 29.90 in    
Wind  
Wind Speed 16 mph ()    
Max Wind Speed 33 mph    
Max Gust Speed 39 mph    
Visibility 10.0 miles    
Events      
T = Trace of Precipitation, MM = Missing Value Source: Averaged Metar Reports

Daily Weather History Graph

Daily Weather History Graph

Search for Another Location

Airport:

Trip Planner

Search our weather history database for the weather conditions in past years. The results will help you decide how hot, cold, wet, or windy it might be!

Date:

Astronomy

Nov. 08, 2012 Rise Set
Actual Time 6:58 AM MST 4:54 PM MST
Civil Twilight 6:27 AM MST 5:25 PM MST
Nautical Twilight 5:53 AM MST 5:59 PM MST
Astronomical Twilight 5:20 AM MST 6:32 PM MST
Moon 12:46 AM MST (11/8) 1:46 PM MST (11/8)
Length of Visible Light 10h 57m
Length of Day
9h 56m
Waning Crescent, 32% of the Moon is Illuminated
Nov 8
Waning Crescent
Nov 13
New
Nov 20
First Quarter
Nov 28
Full
Dec 6
Last Quarter

Hourly Weather History & Observations

Time (MST) Temp. Windchill Dew Point Humidity Pressure Visibility Wind Dir Wind Speed Gust Speed Precip Events Conditions
12:15 AM 50.0 °F - 19.4 °F 30% 30.05 in 10.0 mi SSW 12.7 mph - N/A   Clear
12:35 AM 48.2 °F - 19.4 °F 32% 30.05 in 10.0 mi SSW 11.5 mph - N/A   Clear
1:15 AM 48.2 °F - 21.2 °F 34% 30.04 in 10.0 mi SSW 12.7 mph - N/A   Clear
1:35 AM 50.0 °F - 21.2 °F 32% 30.04 in 10.0 mi SW 9.2 mph - N/A   Clear
1:55 AM 48.2 °F - 21.2 °F 34% 30.04 in 10.0 mi SW 10.4 mph - N/A   Clear
2:15 AM 48.2 °F - 21.2 °F 34% 30.04 in 10.0 mi SW 6.9 mph - N/A   Clear
2:35 AM 48.2 °F - 21.2 °F 34% 30.04 in 10.0 mi SW 4.6 mph - N/A   Clear
2:55 AM 46.4 °F 42.9 °F 23.0 °F 40% 30.03 in 10.0 mi WNW 6.9 mph - N/A   Clear
3:15 AM 41.0 °F 39.0 °F 24.8 °F 53% 30.04 in 10.0 mi North 3.5 mph - N/A   Clear
3:35 AM 42.8 °F 37.0 °F 23.0 °F 46% 30.04 in 10.0 mi ESE 10.4 mph - N/A   Clear
3:55 AM 41.0 °F 33.1 °F 23.0 °F 49% 30.03 in 10.0 mi SE 15.0 mph - N/A   Clear
4:15 AM 39.2 °F 30.8 °F 26.6 °F 61% 30.02 in 10.0 mi ESE 15.0 mph - N/A   Clear
4:35 AM 39.2 °F 30.2 °F 26.6 °F 61% 30.02 in 10.0 mi ESE 17.3 mph - N/A   Clear
4:55 AM 39.2 °F 29.6 °F 26.6 °F 61% 30.02 in 10.0 mi ESE 19.6 mph - N/A   Clear
5:15 AM 37.4 °F 26.4 °F 28.4 °F 70% 30.00 in 10.0 mi ESE 23.0 mph 28.8 mph N/A   Clear
5:35 AM 37.4 °F 26.1 °F 28.4 °F 70% 30.00 in 10.0 mi ESE 24.2 mph - N/A   Clear
5:55 AM 37.4 °F 26.1 °F 28.4 °F 70% 29.99 in 10.0 mi ESE 24.2 mph 31.1 mph N/A   Clear
6:15 AM 37.4 °F 25.4 °F 26.6 °F 65% 29.99 in 10.0 mi ESE 27.6 mph - N/A   Clear
6:35 AM 37.4 °F 25.9 °F 26.6 °F 65% 29.99 in 10.0 mi ESE 25.3 mph 29.9 mph N/A   Clear
6:55 AM 35.6 °F 24.2 °F 26.6 °F 70% 29.99 in 10.0 mi ESE 21.9 mph 29.9 mph N/A   Clear
7:15 AM 35.6 °F 23.4 °F 26.6 °F 70% 29.99 in 10.0 mi ESE 25.3 mph - N/A   Clear
7:35 AM 35.6 °F 23.7 °F 26.6 °F 70% 29.99 in 10.0 mi ESE 24.2 mph 33.4 mph N/A   Clear
7:55 AM 35.6 °F 23.7 °F 26.6 °F 70% 29.99 in 10.0 mi ESE 24.2 mph 27.6 mph N/A   Clear
8:15 AM 35.6 °F 24.2 °F 24.8 °F 65% 29.99 in 10.0 mi ESE 21.9 mph 26.5 mph N/A   Clear
8:35 AM 37.4 °F 25.4 °F 24.8 °F 60% 29.99 in 10.0 mi ESE 27.6 mph 36.8 mph N/A   Clear
8:55 AM 37.4 °F 24.4 °F 24.8 °F 60% 29.97 in 10.0 mi ESE 33.4 mph 38.0 mph N/A   Clear
9:15 AM 37.4 °F 25.2 °F 24.8 °F 60% 29.97 in 10.0 mi SE 28.8 mph 35.7 mph N/A   Clear
9:35 AM 37.4 °F 24.8 °F 24.8 °F 60% 29.96 in 10.0 mi ESE 31.1 mph 39.1 mph N/A   Clear
9:55 AM 37.4 °F 24.8 °F 24.8 °F 60% 29.95 in 10.0 mi ESE 31.1 mph 36.8 mph N/A   Clear
10:15 AM 37.4 °F 25.2 °F 24.8 °F 60% 29.94 in 10.0 mi ESE 28.8 mph 38.0 mph N/A   Clear
10:35 AM 37.4 °F 25.2 °F 24.8 °F 60% 29.93 in 10.0 mi ESE 28.8 mph 35.7 mph N/A   Clear
10:55 AM 37.4 °F 25.2 °F 26.6 °F 65% 29.92 in 10.0 mi ESE 28.8 mph 35.7 mph N/A   Clear
11:15 AM 37.4 °F 25.6 °F 26.6 °F 65% 29.91 in 10.0 mi ESE 26.5 mph 35.7 mph N/A   Clear
11:35 AM 37.4 °F 25.2 °F 26.6 °F 65% 29.90 in 10.0 mi ESE 28.8 mph 39.1 mph N/A   Clear
11:55 AM 39.2 °F 27.6 °F 26.6 °F 61% 29.89 in 10.0 mi ESE 28.8 mph 35.7 mph N/A   Clear
12:15 PM 41.0 °F 30.2 °F 26.6 °F 57% 29.87 in 10.0 mi ESE 27.6 mph 32.2 mph N/A   Clear
12:35 PM 41.0 °F 30.2 °F 26.6 °F 57% 29.85 in 10.0 mi ESE 27.6 mph 36.8 mph N/A   Clear
12:55 PM 42.8 °F 31.9 °F 26.6 °F 53% 29.84 in 10.0 mi ESE 32.2 mph - N/A   Clear
1:15 PM 42.8 °F 32.3 °F 24.8 °F 49% 29.83 in 10.0 mi SE 29.9 mph 38.0 mph N/A   Clear
1:35 PM 42.8 °F 33.1 °F 24.8 °F 49% 29.83 in 10.0 mi SE 25.3 mph 38.0 mph N/A   Clear
1:55 PM 44.6 °F 35.5 °F 24.8 °F 46% 29.82 in 10.0 mi ESE 25.3 mph 33.4 mph N/A   Clear
2:15 PM 44.6 °F 36.6 °F 24.8 °F 46% 29.82 in 10.0 mi ESE 19.6 mph 27.6 mph N/A   Clear
2:35 PM 44.6 °F 37.8 °F 24.8 °F 46% 29.83 in 10.0 mi ESE 15.0 mph 21.9 mph N/A   Clear
2:55 PM 46.4 °F 38.1 °F 24.8 °F 43% 29.82 in 10.0 mi SE 24.2 mph 31.1 mph N/A   Clear
3:15 PM 44.6 °F 36.9 °F 24.8 °F 46% 29.81 in 10.0 mi ESE 18.4 mph 29.9 mph N/A   Clear
3:35 PM 44.6 °F 37.4 °F 24.8 °F 46% 29.82 in 10.0 mi ESE 16.1 mph 23.0 mph N/A   Clear
3:55 PM 44.6 °F 37.8 °F 24.8 °F 46% 29.82 in 10.0 mi ESE 15.0 mph - N/A   Clear
4:15 PM 44.6 °F 37.2 °F 24.8 °F 46% 29.81 in 10.0 mi ESE 17.3 mph - N/A   Clear
4:35 PM 44.6 °F 37.4 °F 24.8 °F 46% 29.81 in 10.0 mi SE 16.1 mph - N/A   Clear
4:55 PM 42.8 °F 35.4 °F 24.8 °F 49% 29.81 in 10.0 mi SE 15.0 mph - N/A   Clear
5:15 PM 42.8 °F 37.0 °F 24.8 °F 49% 29.81 in 10.0 mi SE 10.4 mph - N/A   Clear
5:35 PM 42.8 °F 40.1 °F 23.0 °F 46% 29.82 in 10.0 mi NW 4.6 mph - N/A   Clear
5:55 PM 35.6 °F 29.2 °F 26.6 °F 70% 29.83 in 10.0 mi NNW 8.1 mph - N/A   Clear
6:15 PM 35.6 °F 28.0 °F 26.6 °F 70% 29.82 in 10.0 mi NNW 10.4 mph - N/A   Clear
6:35 PM 33.8 °F 24.8 °F 26.6 °F 75% 29.81 in 10.0 mi NNW 12.7 mph - N/A   Clear
6:55 PM 33.8 °F 23.9 °F 26.6 °F 75% 29.81 in 10.0 mi NNW 15.0 mph - N/A   Clear
7:15 PM 32.0 °F 23.0 °F 26.6 °F 80% 29.81 in 10.0 mi North 11.5 mph - N/A   Clear
7:35 PM 32.0 °F 22.1 °F 26.6 °F 80% 29.80 in 10.0 mi North 13.8 mph - N/A   Clear
7:55 PM 32.0 °F 23.6 °F 26.6 °F 80% 29.79 in 10.0 mi NNW 10.4 mph - N/A   Clear
8:15 PM 30.2 °F 21.9 °F 26.6 °F 86% 29.79 in 10.0 mi NNW 9.2 mph - N/A   Clear
8:35 PM 30.2 °F 22.6 °F 26.6 °F 86% 29.78 in 10.0 mi NNW 8.1 mph - N/A   Clear
9:15 PM 30.2 °F 23.4 °F 26.6 °F 86% 29.78 in 10.0 mi North 6.9 mph - N/A   Clear
9:35 PM 30.2 °F 25.4 °F 26.6 °F 86% 29.77 in 10.0 mi NNE 4.6 mph - N/A   Clear
9:55 PM 30.2 °F 25.4 °F 26.6 °F 86% 29.77 in 10.0 mi NNE 4.6 mph - N/A   Clear
10:15 PM 30.2 °F 24.3 °F 26.6 °F 86% 29.77 in 10.0 mi NNE 5.8 mph - N/A   Clear
10:35 PM 28.4 °F 22.2 °F 26.6 °F 93% 29.76 in 10.0 mi NE 5.8 mph - N/A   Clear
10:55 PM 35.6 °F 29.9 °F 24.8 °F 65% 29.75 in 10.0 mi East 6.9 mph - N/A   Clear
11:15 PM 35.6 °F 29.2 °F 24.8 °F 65% 29.75 in 10.0 mi East 8.1 mph - N/A   Clear
11:35 PM 39.2 °F 31.2 °F 23.0 °F 52% 29.75 in 10.0 mi East 13.8 mph - N/A   Clear
11:55 PM 41.0 °F 33.5 °F 23.0 °F 49% 29.74 in 10.0 mi ESE 13.8 mph - N/A   Clear